Station Historical Data
Daily Summary for April 20, 2017 Units:  English    Metric   Both
Next Day »
Daily Weekly Monthly Yearly Custom
  High: Low: Average:
Temperature: 56.3 °F 43.9 °F 48.9 °F
Dew Point: 46.0 °F 41.2 °F 43.2 °F
Humidity: 90% 62% 81%
Wind Speed: 9.0mph 0.0mph 1.3mph
Wind Gust: 14.0mph - -
Wind- - SW
Pressure: 30.33 in 30.27 in -
Precipitation: 0.00 in    
Historical Graphs
 
 
Tabular Data for April 20, 2017
Time Temperature Dew Point Pressure Wind Wind Speed Wind Gust Humidity Rainfall Rate (Hourly) solar Conditions
00:01 47.2 °F 42.0 °F 30.29 in Calm     82% 0.00 in 0.00 W/m2
00:06 47.1 °F 41.9 °F 30.30 in Calm     82% 0.00 in 0.00 W/m2
00:11 47.0 °F 41.8 °F 30.30 in Calm     82% 0.00 in 0.00 W/m2
00:16 46.9 °F 42.0 °F 30.30 in Calm     83% 0.00 in 0.00 W/m2
00:21 46.8 °F 41.9 °F 30.30 in Calm     83% 0.00 in 0.00 W/m2
00:26 46.8 °F 42.2 °F 30.30 in Calm     84% 0.00 in 0.00 W/m2
00:31 46.8 °F 42.5 °F 30.30 in Calm     85% 0.00 in 0.00 W/m2
00:36 46.8 °F 42.8 °F 30.30 in Calm     86% 0.00 in 0.00 W/m2
00:41 46.8 °F 43.1 °F 30.30 in Calm     87% 0.00 in 0.00 W/m2
00:46 46.7 °F 43.0 °F 30.30 in Calm     87% 0.00 in 0.00 W/m2
00:51 46.6 °F 43.2 °F 30.30 in Calm     88% 0.00 in 0.00 W/m2
00:56 46.5 °F 43.1 °F 30.30 in Calm     88% 0.29 in 0.00 W/m2
01:01 46.4 °F 43.3 °F 30.30 in Calm     89% 0.23 in 0.00 W/m2
01:06 46.2 °F 43.1 °F 30.30 in Calm     89% 0.16 in 0.00 W/m2
01:11 46.0 °F 43.0 °F 30.30 in Calm     89% 0.06 in 0.00 W/m2
01:16 45.9 °F 42.8 °F 30.30 in Calm     89% 0.04 in 0.00 W/m2
01:21 45.8 °F 42.8 °F 30.30 in Calm     89% 0.04 in 0.00 W/m2
01:26 45.8 °F 42.8 °F 30.30 in Calm     89% 0.04 in 0.00 W/m2
01:31 45.7 °F 42.7 °F 30.30 in Calm     89% 0.05 in 0.00 W/m2
01:36 45.6 °F 42.8 °F 30.30 in Calm     90% 0.05 in 0.00 W/m2
01:41 45.6 °F 42.8 °F 30.30 in Calm     90% 0.06 in 0.00 W/m2
01:46 45.6 °F 42.8 °F 30.30 in Calm     90% 0.06 in 0.00 W/m2
01:51 45.6 °F 42.8 °F 30.29 in Calm     90% 0.08 in 0.00 W/m2
01:57 45.5 °F 42.7 °F 30.29 in Calm     90% 0.06 in 0.00 W/m2
02:02 45.4 °F 42.6 °F 30.29 in Calm     90% 0.13 in 0.00 W/m2
02:12 45.4 °F 42.6 °F 30.29 in Calm     90% 0.18 in 0.00 W/m2
02:17 45.3 °F 42.5 °F 30.29 in Calm     90% 0.24 in 0.00 W/m2
02:22 45.2 °F 42.5 °F 30.29 in Calm     90% 0.19 in 0.00 W/m2
02:27 45.2 °F 42.5 °F 30.29 in Calm     90% 0.16 in 0.00 W/m2
02:32 45.1 °F 42.3 °F 30.29 in Calm     90% 0.08 in 0.00 W/m2
02:37 45.1 °F 42.3 °F 30.29 in Calm     90% 0.08 in 0.00 W/m2
02:42 45.0 °F 42.2 °F 30.28 in Calm   2.0 mph 90% 0.05 in 0.00 W/m2
02:47 44.9 °F 42.2 °F 30.29 in Calm   4.0 mph 90% 0.00 in 0.00 W/m2
02:52 44.9 °F 42.2 °F 30.29 in Calm     90% 0.00 in 0.00 W/m2
02:57 44.9 °F 42.2 °F 30.29 in Calm   5.0 mph 90% 0.00 in 0.00 W/m2
03:02 44.8 °F 42.0 °F 30.29 in SE 2.0 mph 6.0 mph 90% 0.00 in 0.00 W/m2
03:07 44.7 °F 42.0 °F 30.29 in Calm   5.0 mph 90% 0.00 in 0.00 W/m2
03:12 44.7 °F 42.0 °F 30.29 in ESE 2.0 mph 4.0 mph 90% 0.00 in 0.00 W/m2
03:17 44.7 °F 42.0 °F 30.28 in SE 4.0 mph 5.0 mph 90% 0.00 in 0.00 W/m2
03:22 44.7 °F 42.0 °F 30.29 in Calm   4.0 mph 90% 0.00 in 0.00 W/m2
03:27 44.7 °F 42.0 °F 30.29 in Calm     90% 0.00 in 0.00 W/m2
03:32 44.7 °F 42.0 °F 30.29 in SE 2.0 mph 5.0 mph 90% 0.00 in 0.00 W/m2
03:42 44.7 °F 42.0 °F 30.29 in Calm   5.0 mph 90% 0.00 in 0.00 W/m2
03:47 44.6 °F 41.8 °F 30.29 in Calm     90% 0.00 in 0.00 W/m2
03:52 44.6 °F 41.8 °F 30.29 in SE 4.0 mph 7.0 mph 90% 0.00 in 0.00 W/m2
03:57 44.6 °F 41.8 °F 30.29 in SE 5.0 mph 6.0 mph 90% 0.00 in 0.00 W/m2
04:02 44.6 °F 41.8 °F 30.29 in Calm     90% 0.00 in 0.00 W/m2
04:07 44.5 °F 41.8 °F 30.29 in Calm     90% 0.00 in 0.00 W/m2
04:12 44.5 °F 41.8 °F 30.28 in SE 1.0 mph 6.0 mph 90% 0.00 in 0.00 W/m2
04:17 44.5 °F 41.8 °F 30.29 in SE 4.0 mph 7.0 mph 90% 0.00 in 0.00 W/m2
04:22 44.5 °F 41.8 °F 30.29 in Calm     90% 0.00 in 0.00 W/m2
04:27 44.6 °F 41.8 °F 30.29 in Calm   6.0 mph 90% 0.00 in 0.00 W/m2
04:32 44.6 °F 41.8 °F 30.29 in Calm   6.0 mph 90% 0.00 in 0.00 W/m2
04:37 44.6 °F 41.8 °F 30.29 in SE 1.0 mph 2.0 mph 90% 0.00 in 0.00 W/m2
04:42 44.6 °F 41.8 °F 30.29 in Calm   4.0 mph 90% 0.00 in 0.00 W/m2
04:47 44.6 °F 41.8 °F 30.28 in Calm   4.0 mph 90% 0.00 in 0.00 W/m2
04:52 44.6 °F 41.8 °F 30.28 in SE 2.0 mph 7.0 mph 90% 0.00 in 0.00 W/m2
04:57 44.6 °F 41.8 °F 30.28 in SE 4.0 mph 6.0 mph 90% 0.00 in 0.00 W/m2
05:02 44.6 °F 41.8 °F 30.28 in SE 5.0 mph 7.0 mph 90% 0.00 in 0.00 W/m2
05:07 44.6 °F 41.8 °F 30.28 in Calm     90% 0.00 in 0.00 W/m2
05:12 44.6 °F 41.8 °F 30.28 in Calm   5.0 mph 90% 0.00 in 0.00 W/m2
05:17 44.6 °F 41.8 °F 30.29 in Calm     90% 0.00 in 0.00 W/m2
05:22 44.6 °F 41.8 °F 30.29 in Calm     90% 0.00 in 0.00 W/m2
05:27 44.6 °F 41.8 °F 30.29 in Calm     90% 0.00 in 0.00 W/m2
05:32 44.6 °F 41.8 °F 30.29 in Calm   2.0 mph 90% 0.00 in 0.00 W/m2
05:37 44.6 °F 41.8 °F 30.29 in Calm     90% 0.00 in 0.00 W/m2
05:42 44.6 °F 41.8 °F 30.29 in Calm     90% 0.00 in 0.00 W/m2
05:47 44.6 °F 41.8 °F 30.28 in Calm     90% 0.00 in 0.00 W/m2
05:49 44.6 °F 41.8 °F 30.28 in Calm     90% 0.00 in 0.00 W/m2
05:54 44.6 °F 41.8 °F 30.28 in Calm     90% 0.00 in 0.00 W/m2
05:59 44.6 °F 41.8 °F 30.28 in Calm   6.0 mph 90% 0.00 in 0.00 W/m2
06:09 44.5 °F 41.8 °F 30.28 in Calm   6.0 mph 90% 0.00 in 0.00 W/m2
06:14 44.5 °F 41.8 °F 30.28 in SE 5.0 mph 5.0 mph 90% 0.00 in 0.00 W/m2
06:19 44.5 °F 41.8 °F 30.28 in SE 5.0 mph 7.0 mph 90% 0.00 in 5.00 W/m2
06:24 44.4 °F 41.7 °F 30.28 in SE 6.0 mph 8.0 mph 90% 0.00 in 7.00 W/m2
06:34 44.3 °F 41.6 °F 30.28 in SE 5.0 mph 6.0 mph 90% 0.00 in 11.00 W/m2
06:39 44.2 °F 41.5 °F 30.28 in Calm   5.0 mph 90% 0.00 in 14.00 W/m2
06:44 44.2 °F 41.5 °F 30.28 in Calm   7.0 mph 90% 0.00 in 18.00 W/m2
06:49 44.1 °F 41.4 °F 30.28 in Calm   6.0 mph 90% 0.00 in 30.00 W/m2
06:54 44.0 °F 41.3 °F 30.28 in Calm   6.0 mph 90% 0.00 in 25.00 W/m2
06:59 44.0 °F 41.3 °F 30.28 in Calm   6.0 mph 90% 0.00 in 25.00 W/m2
07:04 43.9 °F 41.2 °F 30.29 in Calm     90% 0.00 in 25.00 W/m2
07:09 43.9 °F 41.2 °F 30.29 in Calm     90% 0.00 in 30.00 W/m2
07:14 43.9 °F 41.2 °F 30.29 in Calm   1.0 mph 90% 0.00 in 35.00 W/m2
07:19 43.9 °F 41.2 °F 30.29 in SE 1.0 mph 8.0 mph 90% 0.00 in 35.00 W/m2
07:24 43.9 °F 41.2 °F 30.29 in Calm   5.0 mph 90% 0.00 in 116.00 W/m2
07:29 43.9 °F 41.2 °F 30.29 in SE 2.0 mph 5.0 mph 90% 0.00 in 90.00 W/m2
07:34 43.9 °F 41.2 °F 30.29 in SE 4.0 mph 6.0 mph 90% 0.00 in 178.00 W/m2
07:40 43.9 °F 41.2 °F 30.29 in SE 2.0 mph 6.0 mph 90% 0.00 in 223.00 W/m2
07:45 44.0 °F 41.3 °F 30.29 in SE 4.0 mph 5.0 mph 90% 0.00 in 105.00 W/m2
07:50 44.0 °F 41.3 °F 30.30 in Calm   6.0 mph 90% 0.00 in 93.00 W/m2
07:55 44.0 °F 41.3 °F 30.30 in Calm     90% 0.00 in 93.00 W/m2
08:00 44.1 °F 41.4 °F 30.30 in Calm     90% 0.00 in 151.00 W/m2
08:05 44.2 °F 41.5 °F 30.30 in Calm     90% 0.00 in 144.00 W/m2
08:10 44.2 °F 41.5 °F 30.30 in Calm     90% 0.00 in 195.00 W/m2
08:15 44.3 °F 41.6 °F 30.30 in Calm     90% 0.00 in 200.00 W/m2
08:20 44.5 °F 41.8 °F 30.31 in Calm     90% 0.00 in 156.00 W/m2
08:25 44.6 °F 41.8 °F 30.31 in Calm     90% 0.00 in 148.00 W/m2
08:30 44.8 °F 42.0 °F 30.31 in SE 1.0 mph 5.0 mph 90% 0.00 in 262.00 W/m2
08:35 45.0 °F 42.2 °F 30.31 in Calm   2.0 mph 90% 0.00 in 415.00 W/m2
08:40 45.1 °F 42.3 °F 30.31 in Calm   7.0 mph 90% 0.00 in 425.00 W/m2
08:45 45.3 °F 42.5 °F 30.30 in SE 4.0 mph 8.0 mph 90% 0.00 in 441.00 W/m2
08:50 45.4 °F 42.6 °F 30.30 in SE 2.0 mph 8.0 mph 90% 0.00 in 466.00 W/m2
08:55 45.5 °F 42.7 °F 30.31 in Calm   7.0 mph 90% 0.00 in 487.00 W/m2
09:00 45.7 °F 42.9 °F 30.31 in Calm   8.0 mph 90% 0.00 in 517.00 W/m2
09:10 45.9 °F 43.1 °F 30.31 in SE 4.0 mph 6.0 mph 90% 0.00 in 624.00 W/m2
09:15 46.1 °F 43.3 °F 30.31 in Calm   5.0 mph 90% 0.00 in 680.00 W/m2
09:20 46.2 °F 43.4 °F 30.31 in Calm   5.0 mph 90% 0.00 in 369.00 W/m2
09:25 46.3 °F 43.5 °F 30.31 in Calm   5.0 mph 90% 0.00 in 675.00 W/m2
09:30 46.4 °F 43.6 °F 30.31 in Calm     90% 0.00 in 675.00 W/m2
09:35 46.5 °F 43.7 °F 30.31 in Calm   6.0 mph 90% 0.00 in 548.00 W/m2
09:40 46.7 °F 43.9 °F 30.32 in Calm     90% 0.00 in 889.00 W/m2
09:45 47.0 °F 44.2 °F 30.32 in Calm     90% 0.00 in 557.00 W/m2
09:50 46.8 °F 44.0 °F 30.32 in SE 2.0 mph 7.0 mph 90% 0.00 in 902.00 W/m2
09:55 46.8 °F 44.0 °F 30.32 in Calm   6.0 mph 90% 0.00 in 315.00 W/m2
10:00 46.9 °F 44.1 °F 30.32 in SE 2.0 mph 6.0 mph 90% 0.00 in 220.00 W/m2
10:05 47.1 °F 44.3 °F 30.32 in Calm   1.0 mph 90% 0.00 in 220.00 W/m2
10:10 47.2 °F 44.4 °F 30.32 in Calm     90% 0.00 in 884.00 W/m2
10:15 47.2 °F 44.4 °F 30.32 in SSE 5.0 mph 7.0 mph 90% 0.00 in 169.00 W/m2
10:20 47.4 °F 44.6 °F 30.33 in Calm   6.0 mph 90% 0.00 in 155.00 W/m2
10:25 47.4 °F 44.6 °F 30.33 in Calm   3.0 mph 90% 0.00 in 262.00 W/m2
10:35 47.5 °F 44.7 °F 30.33 in Calm     90% 0.00 in 301.00 W/m2
10:40 47.4 °F 44.6 °F 30.33 in Calm     90% 0.00 in 299.00 W/m2
10:45 47.5 °F 44.4 °F 30.33 in Calm     89% 0.00 in 928.00 W/m2
10:50 47.8 °F 44.7 °F 30.33 in Calm   3.0 mph 89% 0.00 in 898.00 W/m2
10:55 47.8 °F 43.2 °F 30.33 in SW 6.0 mph 6.0 mph 84% 0.00 in 896.00 W/m2
11:00 48.2 °F 43.9 °F 30.33 in SW 1.0 mph 5.0 mph 85% 0.00 in 972.00 W/m2
11:05 48.5 °F 43.6 °F 30.33 in Calm   4.0 mph 83% 0.00 in 1009.00 W/m2
11:10 49.1 °F 44.8 °F 30.33 in West 4.0 mph 6.0 mph 85% 0.00 in 1018.00 W/m2
11:15 49.4 °F 44.5 °F 30.33 in West 2.0 mph 6.0 mph 83% 0.00 in 248.00 W/m2
11:20 49.7 °F 44.1 °F 30.33 in Calm   3.0 mph 81% 0.00 in 1076.00 W/m2
11:25 50.1 °F 45.2 °F 30.33 in Calm   8.0 mph 83% 0.00 in 350.00 W/m2
11:31 50.2 °F 44.0 °F 30.33 in Calm     79% 0.00 in 350.00 W/m2
11:36 50.3 °F 44.4 °F 30.33 in Calm   3.0 mph 80% 0.00 in 221.00 W/m2
11:41 50.3 °F 45.3 °F 30.33 in Calm     83% 0.00 in 262.00 W/m2
11:46 50.3 °F 45.3 °F 30.33 in Calm   4.0 mph 83% 0.00 in 1046.00 W/m2
11:51 50.4 °F 45.1 °F 30.33 in Calm   1.0 mph 82% 0.00 in 1085.00 W/m2
11:56 50.7 °F 45.1 °F 30.33 in NW 1.0 mph 8.0 mph 81% 0.00 in 373.00 W/m2
12:01 50.8 °F 44.9 °F 30.33 in Calm   7.0 mph 80% 0.00 in 229.00 W/m2
12:06 50.8 °F 45.5 °F 30.33 in Calm   6.0 mph 82% 0.00 in 1071.00 W/m2
12:16 51.3 °F 44.3 °F 30.32 in NW 4.0 mph 7.0 mph 77% 0.00 in 223.00 W/m2
12:21 51.2 °F 43.6 °F 30.32 in Calm   4.0 mph 75% 0.00 in 188.00 W/m2
12:26 51.2 °F 44.6 °F 30.32 in Calm   5.0 mph 78% 0.00 in 269.00 W/m2
12:31 51.2 °F 44.6 °F 30.32 in Calm   4.0 mph 78% 0.00 in 348.00 W/m2
12:36 51.1 °F 43.5 °F 30.32 in Calm   2.0 mph 75% 0.00 in 348.00 W/m2
12:41 51.2 °F 44.2 °F 30.32 in Calm   3.0 mph 77% 0.00 in 192.00 W/m2
12:46 51.3 °F 43.3 °F 30.32 in WNW 2.0 mph 5.0 mph 74% 0.00 in 213.00 W/m2
12:51 51.4 °F 44.1 °F 30.32 in Calm   6.0 mph 76% 0.00 in 197.00 W/m2
12:56 51.5 °F 44.2 °F 30.31 in Calm   4.0 mph 76% 0.00 in 176.00 W/m2
13:01 51.7 °F 44.0 °F 30.31 in Calm   2.0 mph 75% 0.00 in 1056.00 W/m2
13:06 52.4 °F 45.1 °F 30.31 in Calm   7.0 mph 76% 0.00 in 1007.00 W/m2
13:11 53.1 °F 45.4 °F 30.31 in WNW 5.0 mph 7.0 mph 75% 0.00 in 1021.00 W/m2
13:16 53.7 °F 46.0 °F 30.31 in WSW 7.0 mph 10.0 mph 75% 0.00 in 1037.00 W/m2
13:21 54.4 °F 44.5 °F 30.31 in West 2.0 mph 7.0 mph 69% 0.00 in 1055.00 W/m2
13:26 55.0 °F 44.7 °F 30.31 in Calm     68% 0.00 in 1095.00 W/m2
13:31 55.1 °F 44.0 °F 30.31 in WNW 1.0 mph 4.0 mph 66% 0.00 in 316.00 W/m2
13:36 54.8 °F 44.1 °F 30.31 in NNW 1.0 mph 3.0 mph 67% 0.00 in 376.00 W/m2
13:41 54.4 °F 44.5 °F 30.31 in WNW 5.0 mph 6.0 mph 69% 0.00 in 306.00 W/m2
13:51 54.2 °F 44.3 °F 30.31 in West 4.0 mph 5.0 mph 69% 0.00 in 1187.00 W/m2
13:56 54.7 °F 44.4 °F 30.31 in West 1.0 mph 3.0 mph 68% 0.00 in 315.00 W/m2
14:01 54.9 °F 44.5 °F 30.31 in Calm   3.0 mph 68% 0.00 in 315.00 W/m2
14:06 54.8 °F 42.9 °F 30.31 in West 1.0 mph 2.0 mph 64% 0.00 in 977.00 W/m2
14:11 54.9 °F 45.3 °F 30.31 in NW 5.0 mph 6.0 mph 70% 0.00 in 939.00 W/m2
14:16 55.2 °F 45.2 °F 30.31 in NW 1.0 mph 3.0 mph 69% 0.00 in 918.00 W/m2
14:21 55.2 °F 44.8 °F 30.31 in NW 4.0 mph 4.0 mph 68% 0.00 in 904.00 W/m2
14:26 55.3 °F 44.9 °F 30.30 in WNW 4.0 mph 9.0 mph 68% 0.00 in 947.00 W/m2
14:31 55.3 °F 44.9 °F 30.31 in NNW 7.0 mph 7.0 mph 68% 0.00 in 939.00 W/m2
14:36 55.3 °F 44.9 °F 30.31 in WNW 1.0 mph 4.0 mph 68% 0.00 in 930.00 W/m2
14:41 55.3 °F 44.5 °F 30.30 in Calm   4.0 mph 67% 0.00 in 1020.00 W/m2
14:46 55.3 °F 44.9 °F 30.30 in Calm   7.0 mph 68% 0.00 in 1020.00 W/m2
14:51 55.4 °F 43.8 °F 30.30 in Calm   3.0 mph 65% 0.00 in 939.00 W/m2
14:56 55.4 °F 44.2 °F 30.30 in WNW 6.0 mph 12.0 mph 66% 0.00 in 972.00 W/m2
15:01 55.2 °F 44.8 °F 30.30 in NW 8.0 mph 9.0 mph 68% 0.00 in 928.00 W/m2
15:06 55.2 °F 44.0 °F 30.30 in West 2.0 mph 3.0 mph 66% 0.00 in 904.00 W/m2
15:09 55.3 °F 44.9 °F 30.30 in Calm   7.0 mph 68% 0.00 in 805.00 W/m2
15:14 55.4 °F 44.2 °F 30.30 in WNW 5.0 mph 11.0 mph 66% 0.00 in 935.00 W/m2
15:19 55.5 °F 44.7 °F 30.30 in WNW 1.0 mph 11.0 mph 67% 0.00 in 213.00 W/m2
15:24 55.4 °F 44.2 °F 30.30 in West 1.0 mph 4.0 mph 66% 0.00 in 858.00 W/m2
15:29 55.4 °F 45.4 °F 30.30 in Calm   5.0 mph 69% 0.00 in 796.00 W/m2
15:34 55.5 °F 45.5 °F 30.30 in West 2.0 mph 6.0 mph 69% 0.00 in 775.00 W/m2
15:39 55.5 °F 45.5 °F 30.30 in West 2.0 mph 7.0 mph 69% 0.00 in 749.00 W/m2
15:44 55.5 °F 45.5 °F 30.30 in West 3.0 mph 7.0 mph 69% 0.00 in 722.00 W/m2
15:49 55.6 °F 45.2 °F 30.30 in Calm   9.0 mph 68% 0.00 in 708.00 W/m2
15:54 55.6 °F 45.6 °F 30.30 in NNW 7.0 mph 9.0 mph 69% 0.00 in 696.00 W/m2
15:59 55.7 °F 45.7 °F 30.30 in NW 4.0 mph 7.0 mph 69% 0.00 in 684.00 W/m2
16:04 55.8 °F 45.0 °F 30.30 in NNW 5.0 mph 14.0 mph 67% 0.00 in 684.00 W/m2
16:09 55.8 °F 44.6 °F 30.30 in WNW 2.0 mph 5.0 mph 66% 0.00 in 673.00 W/m2
16:14 55.9 °F 44.7 °F 30.30 in Calm   7.0 mph 66% 0.00 in 642.00 W/m2
16:19 56.0 °F 44.0 °F 30.30 in NNW 2.0 mph 5.0 mph 64% 0.00 in 661.00 W/m2
16:24 56.0 °F 45.6 °F 30.30 in West 6.0 mph 7.0 mph 68% 0.00 in 635.00 W/m2
16:29 56.1 °F 44.9 °F 30.30 in NW 3.0 mph 8.0 mph 66% 0.00 in 705.00 W/m2
16:35 56.2 °F 44.6 °F 30.30 in NNW 8.0 mph 10.0 mph 65% 0.00 in 666.00 W/m2
16:40 56.3 °F 44.3 °F 30.29 in NW 3.0 mph 9.0 mph 64% 0.00 in 608.00 W/m2
16:45 56.3 °F 44.3 °F 30.30 in Calm   9.0 mph 64% 0.00 in 573.00 W/m2
16:50 56.3 °F 44.7 °F 30.29 in WNW 1.0 mph 13.0 mph 65% 0.00 in 550.00 W/m2
16:52 56.3 °F 44.7 °F 30.30 in NW 1.0 mph 5.0 mph 65% 0.00 in 547.00 W/m2
16:57 56.3 °F 43.5 °F 30.29 in NW 5.0 mph 8.0 mph 62% 0.00 in 510.00 W/m2
17:07 56.2 °F 44.2 °F 30.29 in Calm   9.0 mph 64% 0.00 in 362.00 W/m2
17:12 56.1 °F 44.5 °F 30.29 in Calm   10.0 mph 65% 0.00 in 450.00 W/m2
17:17 56.0 °F 43.2 °F 30.30 in NW 1.0 mph 6.0 mph 62% 0.00 in 432.00 W/m2
17:22 55.8 °F 43.0 °F 30.30 in NNW 1.0 mph 8.0 mph 62% 0.00 in 413.00 W/m2
17:27 55.7 °F 43.7 °F 30.30 in WNW 2.0 mph 5.0 mph 64% 0.00 in 394.00 W/m2
17:32 55.7 °F 43.7 °F 30.30 in Calm   3.0 mph 64% 0.00 in 378.00 W/m2
17:37 55.7 °F 43.3 °F 30.30 in NW 3.0 mph 9.0 mph 63% 0.00 in 362.00 W/m2
17:42 55.7 °F 44.1 °F 30.30 in WNW 7.0 mph 9.0 mph 65% 0.00 in 345.00 W/m2
17:47 55.7 °F 44.1 °F 30.30 in NNW 3.0 mph 8.0 mph 65% 0.00 in 327.00 W/m2
17:52 55.6 °F 43.6 °F 30.30 in Calm   7.0 mph 64% 0.00 in 309.00 W/m2
17:57 55.6 °F 44.0 °F 30.30 in Calm   12.0 mph 65% 0.00 in 292.00 W/m2
18:02 55.5 °F 44.3 °F 30.30 in WNW 2.0 mph 5.0 mph 66% 0.00 in 276.00 W/m2
18:07 55.5 °F 45.5 °F 30.30 in Calm   6.0 mph 69% 0.00 in 258.00 W/m2
18:12 55.3 °F 44.9 °F 30.29 in Calm   6.0 mph 68% 0.00 in 241.00 W/m2
18:17 55.1 °F 44.0 °F 30.29 in WNW 3.0 mph 9.0 mph 66% 0.00 in 225.00 W/m2
18:22 55.0 °F 43.9 °F 30.28 in NW 2.0 mph 4.0 mph 66% 0.00 in 207.00 W/m2
18:27 54.9 °F 44.2 °F 30.28 in NW 4.0 mph 9.0 mph 67% 0.00 in 178.00 W/m2
18:32 54.8 °F 43.7 °F 30.28 in Calm   1.0 mph 66% 0.00 in 169.00 W/m2
18:37 54.7 °F 44.4 °F 30.28 in NW 5.0 mph 5.0 mph 68% 0.00 in 149.00 W/m2
18:42 54.5 °F 44.5 °F 30.28 in Calm   4.0 mph 69% 0.00 in 128.00 W/m2
18:47 54.3 °F 45.1 °F 30.28 in NNW 2.0 mph 4.0 mph 71% 0.00 in 107.00 W/m2
18:52 54.0 °F 44.5 °F 30.28 in NNW 7.0 mph 10.0 mph 70% 0.00 in 90.00 W/m2
18:57 53.9 °F 44.3 °F 30.28 in NW 5.0 mph 9.0 mph 70% 0.00 in 76.00 W/m2
19:02 53.7 °F 44.5 °F 30.28 in NW 2.0 mph 2.0 mph 71% 0.00 in 60.00 W/m2
19:03 53.7 °F 44.5 °F 30.28 in Calm   2.0 mph 71% 0.00 in 58.00 W/m2
19:08 53.5 °F 44.3 °F 30.28 in Calm   8.0 mph 71% 0.00 in 44.00 W/m2
19:13 53.2 °F 44.0 °F 30.27 in NNW 1.0 mph 3.0 mph 71% 0.00 in 35.00 W/m2
19:23 52.7 °F 44.7 °F 30.28 in Calm   7.0 mph 74% 0.00 in 19.00 W/m2
19:28 52.4 °F 44.7 °F 30.28 in NNW 1.0 mph 5.0 mph 75% 0.00 in 16.00 W/m2
19:33 52.1 °F 44.4 °F 30.28 in Calm   8.0 mph 75% 0.00 in 12.00 W/m2
19:38 51.8 °F 44.5 °F 30.28 in NW 1.0 mph 5.0 mph 76% 0.00 in 11.00 W/m2
19:43 51.5 °F 43.8 °F 30.28 in NNW 3.0 mph 6.0 mph 75% 0.00 in 7.00 W/m2
19:48 51.4 °F 44.4 °F 30.29 in NNW 3.0 mph 3.0 mph 77% 0.00 in 5.00 W/m2
19:53 51.1 °F 43.8 °F 30.29 in Calm   3.0 mph 76% 0.00 in 0.00 W/m2
19:58 50.8 °F 43.9 °F 30.29 in Calm   3.0 mph 77% 0.00 in 0.00 W/m2
20:03 50.6 °F 44.7 °F 30.29 in NW 4.0 mph 4.0 mph 80% 0.00 in 0.00 W/m2
20:08 50.4 °F 44.1 °F 30.29 in Calm   4.0 mph 79% 0.00 in 0.00 W/m2
20:13 50.2 °F 44.3 °F 30.29 in NNW 3.0 mph 5.0 mph 80% 0.00 in 0.00 W/m2
20:18 49.9 °F 44.3 °F 30.29 in North 4.0 mph 5.0 mph 81% 0.00 in 0.00 W/m2
20:23 49.6 °F 44.0 °F 30.29 in North 2.0 mph 6.0 mph 81% 0.00 in 0.00 W/m2
20:28 49.3 °F 43.4 °F 30.29 in North 9.0 mph 9.0 mph 80% 0.00 in 0.00 W/m2
20:33 49.1 °F 43.2 °F 30.29 in North 3.0 mph 8.0 mph 80% 0.00 in 0.00 W/m2
20:38 48.9 °F 43.0 °F 30.29 in North 4.0 mph 6.0 mph 80% 0.00 in 0.00 W/m2
20:48 48.7 °F 43.5 °F 30.28 in NNE 5.0 mph 8.0 mph 82% 0.00 in 0.00 W/m2
20:53 48.6 °F 43.4 °F 30.28 in Calm   7.0 mph 82% 0.00 in 0.00 W/m2
20:58 48.4 °F 42.8 °F 30.29 in North 3.0 mph 8.0 mph 81% 0.00 in 0.00 W/m2
21:03 48.3 °F 42.4 °F 30.29 in NNE 1.0 mph 4.0 mph 80% 0.00 in 0.00 W/m2
21:04 48.3 °F 42.4 °F 30.29 in NNE 1.0 mph 8.0 mph 80% 0.00 in 0.00 W/m2
21:09 48.3 °F 42.8 °F 30.29 in NNW 6.0 mph 6.0 mph 81% 0.00 in 0.00 W/m2
21:14 48.3 °F 42.8 °F 30.29 in North 1.0 mph 6.0 mph 81% 0.00 in 0.00 W/m2
21:19 48.2 °F 42.7 °F 30.29 in NNE 2.0 mph 4.0 mph 81% 0.00 in 0.00 W/m2
21:24 48.2 °F 42.7 °F 30.29 in Calm   5.0 mph 81% 0.00 in 0.00 W/m2
21:29 48.0 °F 42.1 °F 30.30 in North 2.0 mph 6.0 mph 80% 0.00 in 0.00 W/m2
21:34 48.0 °F 42.8 °F 30.29 in Calm   6.0 mph 82% 0.00 in 0.00 W/m2
21:39 47.9 °F 42.4 °F 30.30 in North 1.0 mph 4.0 mph 81% 0.00 in 0.00 W/m2
21:44 47.8 °F 41.9 °F 30.30 in North 1.0 mph 6.0 mph 80% 0.00 in 0.00 W/m2
21:49 47.8 °F 42.3 °F 30.30 in North 1.0 mph 5.0 mph 81% 0.00 in 0.00 W/m2
21:54 47.8 °F 42.6 °F 30.29 in North 1.0 mph 3.0 mph 82% 0.00 in 0.00 W/m2
21:59 47.7 °F 42.2 °F 30.29 in North 2.0 mph 4.0 mph 81% 0.00 in 0.00 W/m2
22:04 47.6 °F 42.1 °F 30.29 in North 3.0 mph 5.0 mph 81% 0.00 in 0.00 W/m2
22:09 47.6 °F 42.4 °F 30.29 in North 3.0 mph 5.0 mph 82% 0.00 in 0.00 W/m2
22:14 47.6 °F 42.4 °F 30.29 in North 4.0 mph 4.0 mph 82% 0.00 in 0.00 W/m2
22:19 47.4 °F 42.2 °F 30.29 in NNW 1.0 mph 6.0 mph 82% 0.00 in 0.00 W/m2
22:24 47.4 °F 42.2 °F 30.29 in North 3.0 mph 6.0 mph 82% 0.00 in 0.00 W/m2
22:29 47.3 °F 42.1 °F 30.28 in Calm   2.0 mph 82% 0.00 in 0.00 W/m2
22:34 47.2 °F 42.0 °F 30.28 in North 1.0 mph 2.0 mph 82% 0.00 in 0.00 W/m2
22:39 47.0 °F 42.1 °F 30.28 in Calm     83% 0.00 in 0.00 W/m2
22:44 47.0 °F 42.1 °F 30.28 in Calm     83% 0.00 in 0.00 W/m2
22:49 46.8 °F 41.9 °F 30.28 in Calm     83% 0.00 in 0.00 W/m2
22:54 46.8 °F 41.9 °F 30.28 in Calm     83% 0.00 in 0.00 W/m2
22:59 46.7 °F 41.8 °F 30.28 in Calm     83% 0.00 in 0.00 W/m2
23:04 46.7 °F 41.8 °F 30.28 in Calm     83% 0.00 in 0.00 W/m2
23:09 46.4 °F 41.5 °F 30.27 in Calm     83% 0.00 in 0.00 W/m2
23:15 46.2 °F 41.3 °F 30.28 in Calm     83% 0.00 in 0.00 W/m2
23:20 46.1 °F 41.5 °F 30.27 in Calm     84% 0.00 in 0.00 W/m2
23:25 46.0 °F 41.8 °F 30.27 in Calm     85% 0.00 in 0.00 W/m2
23:30 46.0 °F 41.8 °F 30.28 in Calm     85% 0.00 in 0.00 W/m2
23:35 45.8 °F 41.5 °F 30.28 in Calm     85% 0.00 in 0.00 W/m2
23:40 45.8 °F 41.5 °F 30.28 in Calm     85% 0.00 in 0.00 W/m2
23:45 45.8 °F 41.5 °F 30.28 in Calm     85% 0.00 in 0.00 W/m2
23:50 45.8 °F 41.5 °F 30.27 in Calm     85% 0.00 in 0.00 W/m2
23:54 45.7 °F 41.5 °F 30.27 in Calm   4.0 mph 85% 0.00 in 0.00 W/m2
23:59 45.8 °F 41.9 °F 30.27 in ENE 1.0 mph 2.0 mph 86% 0.00 in 0.00 W/m2
Foresthill Weather
 WU-history PHP script courtesy of   Juneau County Weather.
powered by Cumulus v1.9.3 (1059)
Ambient Weather VWS v14.00
Top Contact Website Map Copyright © 2007 - 2018 Foresthillweather.com Never base important decisions on this or any weather information obtained from the Internet